1495324801.06,24682,18.25,73922.5,1.45,0.75,0.75,0,*77
1495324802.28,24683,18.25,73920.0,1.45,0.87,0.83,0,*72
1495324803.51,24684,18.25,73920.8,1.45,0.83,0.83,0,*71
1495324804.73,24685,18.25,73926.8,1.45,0.83,0.83,0,*70
1495324805.98,24686,18.25,73924.5,1.43,0.83,0.83,0,*75
1495324807.24,24687,18.25,73924.0,1.47,0.87,0.91,0,*77
1495324808.47,24688,18.25,73928.0,1.45,0.87,0.87,0,*7D
1495324809.69,24689,18.25,73930.3,1.45,0.87,0.83,0,*78
1495324810.91,24690,18.25,73928.0,1.45,0.75,0.83,0,*7D
1495324812.13,24691,18.25,73928.5,1.45,0.75,0.83,0,*7C
1495324813.38,24692,18.25,73924.8,1.47,0.87,0.83,0,*70
1495324814.58,24693,18.25,73922.8,1.45,0.83,0.97,0,*72
1495324815.81,24694,18.25,73922.0,1.45,0.87,0.87,0,*70
1495324817.04,24695,18.25,73916.8,1.45,0.87,0.83,0,*75
1495324818.28,24696,18.25,73916.3,1.43,0.83,0.87,0,*70
1495324819.51,24697,18.25,73922.3,1.45,0.83,0.83,0,*73
1495324820.73,24698,18.25,73924.0,1.45,0.83,0.87,0,*78
1495324821.96,24699,18.25,73924.8,1.45,0.83,0.87,0,*79
1495324823.19,24700,18.25,73918.3,1.45,0.83,0.83,0,*7C
1495324824.41,24701,18.25,73920.5,1.45,0.83,0.83,0,*7D
1495324825.63,24702,18.25,73918.5,1.45,0.75,0.83,0,*77
1495324826.88,24703,18.25,73922.0,1.47,0.87,0.87,0,*7D
1495324828.11,24704,18.25,73922.0,1.45,0.87,0.87,0,*78
1495324829.37,24705,18.25,73920.8,1.47,0.91,0.91,0,*7B
1495324830.59,24706,18.25,73916.8,1.45,0.87,0.95,0,*79
1495324831.82,24707,18.25,73912.5,1.45,0.91,0.83,0,*78
1495324833.05,24708,18.25,73916.0,1.45,0.83,0.83,0,*74
1495324834.27,24709,18.25,73912.0,1.45,0.87,0.87,0,*75
1495324835.5,24710,18.25,73920.3,1.47,0.91,0.97,0,*79
1495324836.72,24711,18.25,73916.3,1.47,0.91,0.97,0,*78
1495324837.98,24712,18.25,73914.3,1.47,0.91,0.87,0,*7A
1495324839.23,24713,18.25,73920.3,1.47,0.79,0.87,0,*7D
1495324840.49,24714,18.25,73918.5,1.47,0.87,0.91,0,*7C
1495324841.71,24715,18.25,73908.3,1.45,0.83,0.75,0,*71
1495324842.94,24716,18.25,73904.0,1.45,0.83,0.71,0,*76
1495324844.16,24717,18.25,73916.8,1.45,0.71,0.71,0,*7A
1495324845.37,24718,18.25,73930.0,1.45,0.67,0.71,0,*72
1495324846.59,24719,18.25,73922.0,1.45,0.75,0.87,0,*79
1495324847.81,24720,18.25,73922.5,1.45,0.75,0.83,0,*77
1495324849.06,24721,18.25,73918.5,1.47,0.87,0.87,0,*7D
1495324850.29,24722,18.25,73912.0,1.45,0.83,0.75,0,*75
1495324851.51,24723,18.25,73922.0,1.45,0.83,0.87,0,*79
1495324852.77,24724,18.25,73918.0,1.47,0.79,0.83,0,*7D
1495324853.99,24725,18.25,73920.3,1.45,0.83,0.83,0,*7B
1495324855.22,24726,18.25,73916.3,1.45,0.83,0.83,0,*78
1495324856.44,24727,18.25,73910.3,1.45,0.87,0.83,0,*7D
1495324857.67,24728,18.25,73906.8,1.45,0.83,0.87,0,*72
1495324858.89,24729,18.25,73908.8,1.45,0.83,0.83,0,*77
1495324860.15,24730,18.25,73910.8,1.47,0.91,0.87,0,*7A
1495324861.38,24731,18.25,73922.0,1.45,0.87,0.83,0,*7A
1495324862.6,24732,18.25,73920.0,1.45,0.83,0.83,0,*7D
1495324863.83,24733,18.25,73920.0,1.45,0.87,0.83,0,*78
1495324865.05,24734,18.25,73916.3,1.45,0.83,0.95,0,*7C
1495324866.28,24735,18.25,73912.8,1.45,0.87,0.87,0,*7A
1495324867.51,24736,18.25,73914.3,1.45,0.91,0.87,0,*7E
1495324868.73,24737,18.25,73916.8,1.45,0.83,0.83,0,*78
1495324869.96,24738,18.25,73916.8,1.45,0.83,0.83,0,*77
1495324871.21,24739,18.25,73914.0,1.47,0.79,0.79,0,*74
1495324872.43,24740,18.25,73916.5,1.45,0.75,0.75,0,*78
1495324873.65,24741,18.25,73916.5,1.45,0.75,0.75,0,*79
1495324874.87,24742,18.25,73924.5,1.45,0.75,0.83,0,*73
1495324876.09,24743,18.25,73930.5,1.45,0.75,0.75,0,*7B
1495324877.31,24744,18.25,73926.8,1.45,0.83,0.83,0,*7C
1495324878.54,24745,18.25,73912.3,1.45,0.83,0.75,0,*74
1495324879.76,24746,18.25,73912.3,1.45,0.83,0.71,0,*73
1495324880.98,24747,18.25,73918.5,1.45,0.75,0.75,0,*7F
1495324882.2,24748,18.25,73922.8,1.45,0.75,0.87,0,*7D
1495324883.42,24749,18.25,73918.0,1.45,0.83,0.83,0,*71
1495324884.64,24750,18.25,73918.0,1.45,0.75,0.83,0,*70
1495324885.89,24751,18.25,73916.0,1.47,0.87,0.79,0,*7B
1495324887.15,24752,18.25,73914.8,1.47,0.79,0.87,0,*78
1495324888.37,24753,18.25,73916.0,1.45,0.83,0.83,0,*7A
1495324889.59,24754,18.25,73924.3,1.45,0.83,0.83,0,*7D
1495324890.82,24755,18.25,73916.3,1.45,0.87,0.87,0,*7C
1495324892.08,24756,18.25,73918.3,1.47,0.87,0.87,0,*7D
1495324893.3,24757,18.25,73918.0,1.45,0.87,0.83,0,*7A
1495324894.56,24758,18.25,73920.3,1.47,0.91,0.91,0,*73
1495324895.79,24759,18.25,73920.8,1.45,0.83,0.87,0,*74
1495324897.01,24760,18.25,73922.0,1.45,0.83,0.83,0,*7A
1495324898.27,24761,18.25,73912.8,1.47,0.87,0.91,0,*7E
1495324899.49,24762,18.25,73914.3,1.45,0.87,0.83,0,*7C
1495324900.72,24763,18.25,73918.5,1.45,0.83,0.87,0,*7D
1495324901.97,24764,18.25,73924.0,1.47,0.87,0.87,0,*7C
1495324903.23,24765,18.25,73920.8,1.47,0.91,0.91,0,*7D
1495324904.46,24766,18.25,73916.3,1.45,0.83,0.87,0,*78
1495324905.71,24767,18.25,73918.3,1.47,0.91,0.87,0,*78
1495324906.96,24768,18.25,73920.0,1.47,0.87,0.79,0,*71
1495324908.21,24769,18.25,73914.8,1.47,0.79,0.75,0,*7D
1495324909.47,24770,18.25,73918.5,1.47,0.79,0.87,0,*78
1495324910.68,24771,18.25,73916.5,1.45,0.75,0.71,0,*7E
1495324911.9,24772,18.25,73918.5,1.45,0.75,0.83,0,*70
1495324913.15,24773,18.25,73912.5,1.47,0.87,0.87,0,*7A
1495324914.38,24774,18.25,73924.5,1.45,0.75,0.83,0,*76
1495324915.6,24775,18.25,73920.0,1.45,0.87,0.87,0,*7E
1495324916.86,24776,18.25,73916.5,1.47,0.87,0.91,0,*78
1495324918.08,24777,18.25,73918.0,1.45,0.75,0.75,0,*7C
1495324919.32,24778,18.25,73920.5,1.47,0.75,0.87,0,*7C
1495324920.54,24779,18.25,73912.5,1.45,0.75,0.71,0,*76
1495324921.76,24780,18.25,73922.8,1.45,0.83,0.83,0,*74
1495324922.99,24781,18.25,73926.8,1.45,0.75,0.83,0,*7C
1495324924.21,24782,18.25,73922.0,1.47,0.91,0.97,0,*72
1495324925.43,24783,18.25,73916.8,1.45,0.75,0.83,0,*7E
1495324926.68,24784,18.25,73924.0,1.47,0.79,0.91,0,*74
1495324927.91,24785,18.25,73926.8,1.45,0.83,0.83,0,*71
1495324929.16,24786,18.25,73924.5,1.47,0.87,0.83,0,*74
1495324930.39,24787,18.25,73930.0,1.45,0.87,0.83,0,*77
1495324931.62,24788,18.25,73926.8,1.45,0.87,0.87,0,*7C
1495324932.85,24789,18.25,73926.3,1.45,0.87,0.83,0,*79
1495324934.07,24790,18.25,73924.3,1.45,0.83,0.87,0,*71
1495324935.3,24791,18.25,73922.3,1.45,0.87,0.83,0,*70
1495324936.52,24792,18.25,73928.8,1.45,0.83,0.83,0,*77
1495324937.75,24793,18.25,73920.3,1.45,0.83,0.87,0,*72
1495324938.97,24794,18.25,73926.3,1.45,0.83,0.83,0,*71
1495324940.23,24795,18.25,73920.8,1.47,0.87,0.87,0,*72
1495324941.46,24796,18.25,73926.3,1.45,0.87,0.87,0,*73
1495324942.68,24797,18.25,73926.5,1.45,0.87,0.83,0,*76
1495324943.91,24798,18.25,73924.8,1.45,0.87,0.83,0,*79
1495324945.13,24799,18.25,73924.0,1.45,0.83,0.83,0,*7C
1495324946.36,24800,18.25,73926.5,1.45,0.83,0.75,0,*7A
1495324947.62,24801,18.25,73930.3,1.47,0.87,0.91,0,*77
1495324948.84,24802,18.25,73934.0,1.45,0.87,0.95,0,*72
1495324950.07,24803,18.25,73928.3,1.45,0.87,0.83,0,*74
1495324951.32,24804,18.25,73926.5,1.47,0.87,0.91,0,*72
1495324952.55,24805,18.25,73926.0,1.45,0.83,0.87,0,*72
1495324953.8,24806,18.25,73928.0,1.47,0.91,0.87,0,*70
1495324955.05,24807,18.25,73924.8,1.47,0.87,0.87,0,*76
1495324956.31,24808,18.25,73924.5,1.47,0.87,0.91,0,*7E
1495324957.53,24809,18.25,73928.8,1.45,0.87,0.95,0,*79
1495324958.75,24810,18.25,73930.8,1.47,0.91,0.97,0,*76
1495324959.98,24811,18.25,73932.3,1.47,0.91,0.97,0,*77
1495324961.24,24812,18.25,73934.0,1.47,0.87,0.91,0,*75
1495324962.49,24813,18.25,73926.3,1.47,0.79,0.87,0,*72
1495324963.71,24814,18.25,73926.8,1.45,0.75,0.75,0,*76
1495324964.96,24815,18.25,73926.5,1.47,0.87,0.87,0,*75
1495324966.18,24816,18.25,73924.5,1.45,0.75,0.75,0,*74
1495324967.43,24817,18.25,73928.8,1.47,0.79,0.75,0,*7B
1495324968.66,24818,18.25,73930.0,1.45,0.71,0.75,0,*7E
1495324969.88,24819,18.25,73928.3,1.45,0.75,0.75,0,*7B
1495324971.1,24820,18.25,73934.0,1.45,0.75,0.83,0,*78
1495324972.35,24821,18.25,73932.5,1.47,0.87,0.91,0,*75
1495324973.6,24822,18.25,73928.3,1.47,0.87,0.87,0,*71
1495324974.83,24823,18.25,73924.3,1.45,0.87,0.87,0,*72
1495324976.08,24824,18.25,73928.5,1.47,0.87,0.87,0,*77
1495324977.34,24825,18.25,73926.3,1.47,0.87,0.91,0,*71
1495324978.59,24826,18.25,73932.8,1.47,0.87,0.87,0,*75
1495324979.85,24827,18.25,73930.3,1.47,0.91,0.87,0,*73
1495324981.1,24828,18.25,73926.5,1.47,0.79,0.87,0,*7A
1495324982.32,24829,18.25,73918.0,1.45,0.75,0.83,0,*71
1495324983.57,24830,18.25,73918.3,1.47,0.79,0.75,0,*7E
1495324984.82,24831,18.25,73916.8,1.47,0.79,0.79,0,*73
1495324986.04,24832,18.25,73926.8,1.45,0.71,0.75,0,*76
1495324987.29,24833,18.25,73930.3,1.47,0.87,0.79,0,*70
1495324988.54,24834,18.25,73928.5,1.47,0.79,0.87,0,*77
1495324989.79,24835,18.25,73926.8,1.47,0.91,0.79,0,*71
1495324991.05,24836,18.25,73930.5,1.47,0.91,0.87,0,*73
1495324992.3,24837,18.25,73930.5,1.47,0.87,0.83,0,*71
1495324993.55,24838,18.25,73934.3,1.47,0.87,0.87,0,*7A
1495324994.81,24839,18.25,73930.0,1.47,0.91,0.87,0,*7C
1495324996.07,24840,18.25,73932.5,1.47,0.91,0.91,0,*75
1495324997.29,24841,18.25,73926.3,1.45,0.83,0.87,0,*72
1495324998.55,24842,18.25,73924.3,1.47,0.87,0.91,0,*70
1495324999.77,24843,18.25,73924.3,1.45,0.75,0.71,0,*70
1495325001.02,24844,18.25,73922.3,1.47,0.79,0.87,0,*70
1495325002.24,24845,18.25,73924.0,1.45,0.83,0.83,0,*72
1495325003.47,24846,18.25,73920.5,1.45,0.87,0.87,0,*71
1495325004.7,24847,18.25,73920.8,1.45,0.83,0.87,0,*74
1495325005.92,24848,18.25,73924.3,1.45,0.87,0.83,0,*7B
1495325007.15,24849,18.25,73922.5,1.45,0.95,0.87,0,*7D
1495325008.41,24850,18.25,73920.3,1.47,0.91,0.91,0,*74
1495325009.67,24851,18.25,73924.0,1.47,0.91,0.91,0,*75
1495325010.89,24852,18.25,73924.8,1.45,0.83,0.83,0,*74
1495325012.12,24853,18.25,73926.5,1.45,0.87,0.87,0,*75
1495325013.35,24854,18.25,73924.3,1.45,0.87,0.87,0,*72
1495325014.57,24855,18.25,73920.8,1.45,0.75,0.83,0,*7A
1495325015.82,24856,18.25,73924.0,1.47,0.87,0.87,0,*72
1495325017.05,24857,18.25,73926.8,1.45,0.87,0.83,0,*75
1495325018.27,24858,18.25,73926.0,1.45,0.83,0.83,0,*7E
1495325019.52,24859,18.25,73924.8,1.47,0.87,0.87,0,*7D
1495325020.75,24860,18.25,73924.8,1.45,0.87,0.83,0,*71
1495325022.0,24861,18.25,73928.3,1.47,0.87,0.87,0,*76
1495325023.23,24862,18.25,73926.8,1.45,0.87,0.87,0,*77
1495325024.45,24863,18.25,73926.8,1.47,0.87,0.97,0,*75
1495325025.68,24864,18.25,73926.0,1.45,0.87,0.87,0,*71
1495325026.93,24865,18.25,73920.3,1.47,0.87,0.87,0,*72
1495325028.16,24866,18.25,73924.5,1.45,0.87,0.87,0,*73
1495325029.42,24867,18.25,73924.0,1.47,0.91,0.87,0,*77
1495325030.65,24868,18.25,73922.3,1.45,0.87,0.87,0,*7D
1495325031.87,24869,18.25,73922.3,1.45,0.83,0.83,0,*7C
1495325033.13,24870,18.25,73920.8,1.47,0.87,0.91,0,*71
1495325034.38,24871,18.25,73924.0,1.47,0.79,0.87,0,*76
1495325035.63,24872,18.25,73922.3,1.47,0.79,0.79,0,*74
1495325036.85,24873,18.25,73918.5,1.45,0.71,0.75,0,*73
1495325038.09,24874,18.25,73918.8,1.47,0.75,0.79,0,*7E
1495325039.34,24875,18.25,73916.8,1.47,0.87,0.83,0,*77
1495325040.6,24876,18.25,73922.3,1.47,0.91,0.91,0,*70
1495325041.85,24877,18.25,73918.8,1.47,0.79,0.75,0,*7D
1495325043.07,24878,18.25,73922.5,1.45,0.75,0.83,0,*75
1495325044.29,24879,18.25,73924.5,1.45,0.75,0.83,0,*74
1495325045.54,24880,18.25,73926.0,1.47,0.75,0.75,0,*79
1495325046.76,24881,18.25,73924.5,1.45,0.71,0.71,0,*7A
1495325047.98,24882,18.25,73922.8,1.45,0.75,0.75,0,*79
1495325049.23,24883,18.25,73930.0,1.47,0.79,0.83,0,*7F
1495325050.45,24884,18.25,73924.3,1.45,0.75,0.75,0,*7F
1495325051.69,24885,18.25,73922.5,1.47,0.75,0.79,0,*70
1495325052.92,24886,18.25,73922.5,1.45,0.79,0.83,0,*78
1495325054.15,24887,18.25,73926.0,1.45,0.87,0.87,0,*7C
1495325055.4,24888,18.25,73922.5,1.47,0.87,0.87,0,*71
1495325056.62,24889,18.19,73920.0,1.45,0.71,0.75,0,*76
1495325057.87,24890,18.25,73922.5,1.47,0.91,0.79,0,*7E
1495325059.13,24891,18.25,73922.3,1.47,0.91,0.87,0,*7E
1495325060.38,24892,18.25,73926.0,1.47,0.87,0.79,0,*7B
1495325061.63,24893,18.25,73916.3,1.47,0.79,0.79,0,*7B
1495325062.85,24894,18.25,73916.8,1.45,0.75,0.75,0,*7E
1495325064.07,24895,18.25,73916.5,1.45,0.71,0.75,0,*7B
1495325065.32,24896,18.25,73916.3,1.47,0.87,0.87,0,*7E
1495325066.55,24897,18.25,73922.3,1.45,0.87,0.87,0,*7D
1495325067.77,24898,18.19,73916.5,1.45,0.87,0.95,0,*71
1495325069.02,24899,18.25,73914.0,1.47,0.87,0.79,0,*70
1495325070.28,24900,18.25,73914.5,1.47,0.87,0.91,0,*77
1495325071.5,24901,18.25,73922.0,1.45,0.79,0.83,0,*76
1495325072.75,24902,18.25,73930.8,1.47,0.87,0.79,0,*73
1495325074.01,24903,18.25,73918.3,1.47,0.87,0.91,0,*74
1495325075.23,24904,18.25,73916.8,1.45,0.83,0.83,0,*76
1495325076.45,24905,18.25,73922.3,1.45,0.75,0.71,0,*73
1495325077.7,24906,18.25,73924.0,1.47,0.79,0.75,0,*7A
1495325078.95,24907,18.25,73928.5,1.47,0.79,0.79,0,*77
1495325080.2,24908,18.25,73928.8,1.47,0.87,0.87,0,*78
1495325081.46,24909,18.25,73926.5,1.47,0.91,0.87,0,*7E
1495325082.68,24910,18.25,73920.3,1.45,0.83,0.83,0,*73
1495325083.91,24911,18.25,73932.3,1.45,0.83,0.87,0,*76
1495325085.16,24912,18.25,73926.3,1.47,0.87,0.87,0,*73
1495325086.39,24913,18.25,73928.5,1.45,0.87,0.83,0,*74
1495325087.61,24914,18.25,73920.0,1.45,0.75,0.83,0,*7E
1495325088.83,24915,18.25,73922.0,1.45,0.75,0.75,0,*76
1495325090.05,24916,18.25,73912.0,1.45,0.75,0.75,0,*75
1495325091.3,24917,18.25,73906.3,1.47,0.87,0.79,0,*77
1495325092.52,24918,18.25,73914.8,1.45,0.71,0.71,0,*7B
1495325093.74,24919,18.25,73910.0,1.45,0.71,0.75,0,*7E
1495325095.0,24920,18.25,73908.3,1.47,0.87,0.75,0,*7F
1495325096.22,24921,18.25,73912.5,1.45,0.71,0.75,0,*75
1495325097.44,24922,18.25,73920.5,1.45,0.75,0.75,0,*72
1495325098.66,24923,18.25,73920.3,1.45,0.71,0.75,0,*77
1495325099.88,24924,18.25,73920.8,1.45,0.75,0.83,0,*7D
1495325101.1,24925,18.25,73926.5,1.45,0.75,0.83,0,*7C
1495325102.36,24926,18.25,73924.8,1.47,0.91,0.87,0,*73
1495325103.61,24927,18.25,73922.3,1.47,0.87,0.87,0,*75
1495325104.84,24928,18.25,73920.3,1.45,0.79,0.75,0,*74
1495325106.08,24929,18.25,73926.0,1.47,0.75,0.75,0,*7B
1495325107.31,24930,18.25,73930.5,1.45,0.71,0.75,0,*75
1495325108.53,24931,18.25,73924.8,1.45,0.83,0.75,0,*79
1495325109.76,24932,18.19,73926.5,1.45,0.83,0.83,0,*73
1495325110.98,24933,18.25,73930.3,1.45,0.83,0.83,0,*72
1495325112.23,24934,18.25,73924.0,1.47,0.79,0.75,0,*7B
1495325113.45,24935,18.25,73920.0,1.45,0.75,0.75,0,*74
1495325114.67,24936,18.25,73924.5,1.45,0.75,0.75,0,*77
1495325115.89,24937,18.25,73924.5,1.45,0.75,0.75,0,*76
1495325117.11,24938,18.25,73926.0,1.45,0.75,0.83,0,*70
1495325118.37,24939,18.25,73926.0,1.47,0.79,0.87,0,*7B
1495325119.59,24940,18.25,73924.3,1.45,0.75,0.75,0,*76
1495325120.8,24941,18.25,73924.8,1.45,0.75,0.83,0,*7E
1495325122.05,24942,18.25,73924.0,1.47,0.79,0.79,0,*76
1495325123.28,24943,18.25,73922.0,1.45,0.83,0.83,0,*75
1495325124.5,24944,18.25,73924.3,1.45,0.83,0.87,0,*76
1495325125.75,24945,18.19,73922.0,1.47,0.87,0.79,0,*70
1495325126.97,24946,18.25,73924.8,1.45,0.75,0.75,0,*70
1495325128.2,24947,18.25,73930.8,1.45,0.83,0.83,0,*71
1495325129.42,24948,18.25,73926.0,1.45,0.83,0.83,0,*7E
1495325130.67,24949,18.25,73928.0,1.47,0.79,0.79,0,*7D
1495325131.9,24950,18.25,73930.8,1.45,0.83,0.83,0,*77
1495325133.12,24951,18.25,73930.8,1.45,0.75,0.83,0,*7F
1495325134.34,24952,18.25,73924.3,1.45,0.83,0.83,0,*75
1495325135.56,24953,18.25,73926.5,1.45,0.75,0.83,0,*7D
1495325136.79,24954,18.25,73930.3,1.45,0.83,0.87,0,*77
1495325138.01,24955,18.19,73924.0,1.45,0.87,0.75,0,*7F
1495325139.24,24956,18.25,73930.8,1.45,0.87,0.83,0,*75
1495325140.47,24957,18.25,73920.5,1.45,0.83,0.87,0,*74
1495325141.72,24958,18.25,73924.8,1.47,0.91,0.87,0,*7A
1495325142.94,24959,18.25,73920.0,1.45,0.83,0.95,0,*79
1495325144.2,24960,18.19,73922.8,1.47,0.91,0.91,0,*76
1495325145.46,24961,18.25,73924.3,1.47,0.87,0.91,0,*70
1495325146.71,24962,18.25,73922.8,1.47,0.87,0.91,0,*73
1495325147.97,24963,18.25,73922.3,1.47,0.91,0.91,0,*75
1495325149.2,24964,18.25,73920.5,1.45,0.87,0.87,0,*70
1495325150.46,24965,18.25,73922.0,1.47,0.91,0.91,0,*73
1495325151.68,24966,18.19,73922.0,1.45,0.87,0.87,0,*72
1495325152.94,24967,18.25,73924.3,1.47,0.91,0.87,0,*76
1495325154.2,24968,18.25,73926.5,1.47,0.91,0.87,0,*79
1495325155.42,24969,18.25,73926.3,1.45,0.87,0.83,0,*79
1495325156.65,24970,18.25,73928.5,1.45,0.83,0.83,0,*75
1495325157.9,24971,18.25,73926.0,1.47,0.87,0.87,0,*76
1495325159.16,24972,18.25,73928.0,1.47,0.87,0.91,0,*72
1495325160.38,24973,18.25,73930.3,1.45,0.87,0.83,0,*72
1495325161.61,24974,18.25,73932.3,1.45,0.87,0.83,0,*75
1495325162.84,24975,18.25,73934.5,1.45,0.83,0.83,0,*70
1495325164.09,24976,18.25,73936.8,1.47,0.91,0.87,0,*76
1495325165.32,24977,18.25,73930.8,1.45,0.83,0.83,0,*72
1495325166.54,24978,18.25,73930.0,1.45,0.75,0.75,0,*7D
1495325167.79,24979,18.19,73924.0,1.47,0.87,0.87,0,*7E
1495325169.05,24980,18.25,73936.3,1.47,0.79,0.91,0,*7E
1495325170.3,24981,18.19,73932.5,1.47,0.87,0.91,0,*7E
1495325171.53,24982,18.19,73924.0,1.47,0.91,0.97,0,*7C
1495325172.75,24983,18.19,73920.0,1.45,0.83,0.83,0,*79
1495325174.0,24984,18.25,73922.5,1.47,0.87,0.83,0,*78
1495325175.23,24985,18.25,73930.8,1.45,0.83,0.75,0,*76
1495325176.48,24986,18.25,73928.0,1.47,0.91,0.87,0,*79
1495325177.71,24987,18.25,73928.0,1.45,0.83,0.87,0,*79
1495325178.93,24988,18.25,73924.0,1.45,0.83,0.87,0,*76
1495325180.19,24989,18.25,73930.8,1.47,0.79,0.87,0,*70
1495325181.44,24990,18.25,73928.0,1.47,0.87,0.87,0,*79
1495325182.69,24991,18.25,73928.8,1.47,0.79,0.91,0,*7E
1495325183.92,24992,18.19,73928.5,1.45,0.83,0.83,0,*79
1495325185.14,24993,18.25,73926.8,1.45,0.83,0.83,0,*78
1495325186.37,24994,18.25,73934.5,1.45,0.83,0.83,0,*7F
1495325187.62,24995,18.25,73938.3,1.47,0.87,0.79,0,*7D
1495325188.88,24996,18.25,73930.5,1.47,0.91,0.91,0,*7F
1495325190.1,24997,18.25,73922.5,1.45,0.87,0.87,0,*7C
1495325191.36,24998,18.25,73924.8,1.47,0.87,0.87,0,*71
1495325192.58,24999,18.25,73926.8,1.45,0.79,0.75,0,*7E
1495325193.83,25000,18.25,73926.5,1.47,0.79,0.79,0,*78
1495325195.08,25001,18.25,73926.3,1.47,0.75,0.91,0,*73
1495325196.34,25002,18.25,73922.8,1.47,0.87,0.91,0,*7D
1495325197.56,25003,18.25,73920.3,1.45,0.87,0.87,0,*79
1495325198.81,25004,18.25,73924.0,1.47,0.79,0.87,0,*7D
1495325200.04,25005,18.19,73920.0,1.45,0.75,0.75,0,*7F
1495325201.26,25006,18.19,73918.5,1.45,0.75,0.83,0,*75
1495325202.48,25007,18.25,73916.8,1.45,0.87,0.87,0,*7D
1495325203.74,25008,18.19,73916.5,1.47,0.87,0.87,0,*70
1495325204.98,25009,18.25,73922.0,1.47,0.87,0.79,0,*70
1495325206.23,25010,18.25,73922.8,1.47,0.87,0.79,0,*78
1495325207.45,25011,18.25,73922.3,1.45,0.75,0.83,0,*73
1495325208.71,25012,18.25,73922.3,1.47,0.91,0.91,0,*7B
1495325209.94,25013,18.25,73920.5,1.45,0.87,0.83,0,*7C
1495325211.2,25014,18.25,73920.3,1.47,0.91,0.87,0,*7A
1495325212.46,25015,18.25,73922.5,1.47,0.91,0.91,0,*7C
1495325213.71,25016,18.25,73926.3,1.47,0.87,0.87,0,*7F
1495325214.96,25017,18.25,73922.8,1.47,0.79,0.79,0,*7E
1495325216.21,25018,18.25,73914.5,1.47,0.87,0.91,0,*76
1495325217.43,25019,18.25,73926.3,1.45,0.75,0.83,0,*7B
1495325218.65,25020,18.25,73930.5,1.45,0.75,0.83,0,*71
1495325219.87,25021,18.25,73922.5,1.45,0.71,0.75,0,*7D
1495325221.09,25022,18.25,73922.0,1.45,0.75,0.75,0,*7A
1495325222.32,25023,18.25,73924.3,1.45,0.83,0.83,0,*7B
1495325223.57,25024,18.25,73922.5,1.47,0.83,0.83,0,*7E
1495325224.79,25025,18.25,73920.3,1.45,0.83,0.83,0,*7D
1495325226.02,25026,18.25,73916.3,1.45,0.71,0.83,0,*73
1495325227.26,25027,18.25,73920.5,1.47,0.79,0.79,0,*7D
1495325228.51,25028,18.25,73922.0,1.47,0.79,0.79,0,*72
1495325229.74,25029,18.25,73920.5,1.45,0.71,0.75,0,*75
1495325230.98,25030,18.25,73924.0,1.47,0.75,0.79,0,*77
1495325232.19,25031,18.25,73926.5,1.45,0.75,0.71,0,*7C
1495325233.44,25032,18.19,73924.0,1.47,0.75,0.75,0,*79
1495325234.69,25033,18.25,73928.3,1.47,0.87,0.87,0,*78
1495325235.94,25034,18.25,73930.8,1.47,0.79,0.83,0,*7A
1495325237.17,25035,18.25,73932.5,1.45,0.83,0.83,0,*7C
1495325238.39,25036,18.25,73930.5,1.45,0.75,0.83,0,*76
1495325239.61,25037,18.25,73920.8,1.45,0.75,0.83,0,*77
1495325240.85,25038,18.25,73928.0,1.47,0.79,0.79,0,*73
1495325242.07,25039,18.25,73922.0,1.45,0.75,0.75,0,*70
1495325243.29,25040,18.25,73922.5,1.45,0.75,0.83,0,*77
1495325244.52,25041,18.19,73924.0,1.45,0.83,0.75,0,*76
1495325245.75,25042,18.19,73924.0,1.45,0.83,0.75,0,*75
1495325246.97,25043,18.19,73916.0,1.45,0.95,0.83,0,*7A
1495325248.2,25044,18.25,73926.0,1.45,0.87,0.83,0,*7E
1495325249.45,25045,18.25,73926.3,1.47,0.79,0.79,0,*79
1495325250.67,25046,18.25,73926.3,1.45,0.75,0.75,0,*78
1495325251.88,25047,18.19,73916.5,1.45,0.75,0.83,0,*70
1495325253.11,25048,18.19,73916.5,1.45,0.83,0.83,0,*76
1495325254.34,25049,18.25,73916.8,1.45,0.83,0.83,0,*77
1495325255.59,25050,18.25,73912.8,1.47,0.87,0.87,0,*7D
1495325256.8,25051,18.25,73910.3,1.45,0.75,0.71,0,*7A
1495325258.03,25052,18.25,73912.0,1.45,0.71,0.71,0,*7D
1495325259.25,25053,18.25,73924.5,1.45,0.71,0.75,0,*78
1495325260.47,25054,18.25,73920.3,1.45,0.75,0.83,0,*72
1495325261.72,25055,18.19,73916.0,1.47,0.87,0.87,0,*78
1495325262.95,25056,18.25,73916.0,1.45,0.71,0.75,0,*7D
1495325264.17,25057,18.19,73918.3,1.45,0.75,0.75,0,*78
1495325265.39,25058,18.19,73916.5,1.45,0.75,0.75,0,*77
1495325266.61,25059,18.25,73918.5,1.45,0.87,0.87,0,*76
1495325267.83,25060,18.19,73912.8,1.45,0.75,0.83,0,*75
1495325269.06,25061,18.25,73920.5,1.45,0.83,0.83,0,*7D
1495325270.31,25062,18.19,73916.0,1.47,0.87,0.75,0,*71
1495325271.54,25063,18.19,73916.5,1.45,0.83,0.75,0,*76
1495325272.76,25064,18.25,73912.0,1.45,0.75,0.83,0,*71
1495325273.98,25065,18.25,73914.0,1.45,0.83,0.75,0,*70
1495325275.2,25066,18.19,73912.8,1.45,0.75,0.83,0,*73
1495325276.43,25067,18.25,73916.3,1.45,0.83,0.87,0,*7F
1495325277.65,25068,18.25,73926.0,1.45,0.83,0.83,0,*74
1495325278.88,25069,18.19,73922.0,1.45,0.83,0.83,0,*75
1495325280.1,25070,18.19,73920.8,1.45,0.83,0.83,0,*7D
1495325281.32,25071,18.25,73922.8,1.45,0.75,0.75,0,*7C
1495325282.54,25072,18.19,73918.8,1.45,0.75,0.75,0,*7F
1495325283.76,25073,18.19,73922.8,1.45,0.75,0.75,0,*7E
1495325284.98,25074,18.19,73916.8,1.45,0.75,0.75,0,*79
1495325286.21,25075,18.25,73924.8,1.45,0.71,0.75,0,*7C
1495325287.45,25076,18.19,73930.0,1.47,0.79,0.79,0,*79
1495325288.68,25077,18.25,73928.0,1.45,0.75,0.75,0,*7A
1495325289.9,25078,18.25,73934.5,1.45,0.71,0.71,0,*75
1495325291.12,25079,18.19,73924.0,1.45,0.75,0.75,0,*74
1495325292.34,25080,18.25,73926.3,1.45,0.75,0.71,0,*76
1495325293.59,25081,18.19,73922.8,1.47,0.87,0.87,0,*71
1495325294.81,25082,18.19,73924.5,1.45,0.75,0.75,0,*70
1495325296.02,25083,18.19,73914.8,1.45,0.75,0.71,0,*75
1495325297.25,25084,18.19,73910.3,1.45,0.83,0.75,0,*7F
1495325298.47,25085,18.19,73914.8,1.45,0.83,0.83,0,*77
1495325299.7,25086,18.25,73912.3,1.45,0.83,0.83,0,*74
1495325300.92,25087,18.19,73912.8,1.45,0.83,0.83,0,*75
1495325302.15,25088,18.19,73920.3,1.45,0.83,0.87,0,*7E
1495325303.37,25089,18.19,73908.5,1.45,0.75,0.75,0,*7B
1495325304.59,25090,18.19,73908.0,1.45,0.71,0.71,0,*73
1495325305.81,25091,18.25,73912.5,1.45,0.75,0.75,0,*72
1495325307.03,25092,18.19,73908.3,1.45,0.71,0.71,0,*71
1495325308.28,25093,18.19,73912.8,1.43,0.75,0.75,0,*76
1495325309.52,25094,18.25,73914.3,1.43,0.71,0.75,0,*75
1495325310.76,25095,18.19,73912.0,1.43,0.75,0.71,0,*74
1495325311.99,25096,18.25,73918.0,1.45,0.71,0.75,0,*71
1495325313.21,25097,18.19,73912.5,1.45,0.71,0.71,0,*74
1495325314.43,25098,18.25,73920.3,1.45,0.75,0.83,0,*72
1495325315.67,25099,18.25,73920.3,1.43,0.75,0.87,0,*71
1495325316.92,25100,18.19,73920.5,1.43,0.75,0.83,0,*74
1495325318.16,25101,18.25,73920.3,1.43,0.83,0.87,0,*78
1495325319.41,25102,18.19,73916.5,1.43,0.83,0.83,0,*7F
1495325320.66,25103,18.19,73918.3,1.43,0.83,0.83,0,*7E
1495325321.91,25104,18.19,73922.3,1.43,0.75,0.75,0,*79
1495325323.15,25105,18.19,73918.5,1.43,0.75,0.75,0,*78
1495325324.37,25106,18.19,73918.3,1.45,0.75,0.83,0,*74
1495325325.62,25107,18.19,73926.5,1.47,0.79,0.83,0,*7B
1495325326.85,25108,18.19,73916.3,1.45,0.83,0.83,0,*73
1495325328.07,25109,18.19,73918.8,1.45,0.83,0.83,0,*72
1495325329.3,25110,18.19,73922.3,1.45,0.87,0.83,0,*7E
1495325330.52,25111,18.19,73924.8,1.45,0.83,0.83,0,*7B
1495325331.75,25112,18.25,73926.0,1.45,0.71,0.75,0,*7C
1495325332.97,25113,18.25,73910.8,1.45,0.75,0.75,0,*79
1495325334.19,25114,18.19,73910.8,1.45,0.83,0.75,0,*77
1495325335.41,25115,18.19,73906.0,1.45,0.71,0.71,0,*7F
1495325336.63,25116,18.25,73916.8,1.45,0.75,0.75,0,*7C
1495325337.85,25117,18.25,73928.0,1.45,0.75,0.71,0,*79
1495325339.07,25118,18.19,73916.8,1.45,0.75,0.75,0,*72